This demonstration page uses our WeatherBlox Daily Observations layout. Learn more.

Left ArrowRight Arrow

38.80484, -77.04692

Hourly Observations for May 23, 2015

Temp ( °F °C ) Dew Point ( °F °C ) Humidity (%) Winds ( mph kmh ) Pressure ( in mb ) Visibility ( mi km ) Precip ( " mm )
12:52 am 00:52 Mostly Clear 66 18.9 42 5.6 42 42 NNW 12 19 30.26 1025 10 16 N/A
1:52 am 01:52 Clear 63 17.2 35 1.7 35 35 NW 10 17 30.29 1026 10 16 N/A
2:52 am 02:52 Clear 61 16.1 29 -1.7 30 30 NW 10 17 30.31 1026 10 16 N/A
3:52 am 03:52 Clear 58 14.4 28 -2.2 32 32 NNW 12 19 30.34 1028 10 16 N/A
4:52 am 04:52 Clear 56 13.3 27 -2.8 33 33 NNW 10 17 30.36 1028 10 16 N/A
5:52 am 05:52 Mostly Cloudy 55 12.8 30 -1.1 38 38 NNW 8 13 30.38 1029 10 16 N/A
6:52 am 06:52 Mostly Cloudy 55 12.8 33 0.6 44 44 NNW 9 15 30.41 1030 10 16 N/A
7:52 am 07:52 Mostly Cloudy 57 13.9 33 0.6 41 41 NNW 9 15 30.44 1031 10 16 N/A
8:52 am 08:52 Partly Cloudy 62 16.7 30 -1.1 30 30 N 10 17 30.46 1032 10 16 N/A
9:52 am 09:52 Partly Cloudy 64 17.8 29 -1.7 27 27 NNW 6 9 30.48 1032 10 16 N/A
10:52 am 10:52 Partly Cloudy 66 18.9 28 -2.2 24 24 N 5 7 30.47 1032 10 16 N/A
11:52 am 11:52 Partly Cloudy 68 20 31 -0.6 25 25 N N/A 30.47 1032 10 16 N/A
12:52 pm 12:52 Partly Cloudy 70 21.1 31 -0.6 23 23 VRB 3 6 30.45 1031 10 16 N/A
1:52 pm 13:52 Mostly Sunny 72 22.2 34 1.1 25 25 E 5 7 30.43 1031 10 16 N/A
2:52 pm 14:52 Mostly Sunny 74 23.3 33 0.6 22 22 VRB 7 11 30.42 1030 10 16 N/A
3:52 pm 15:52 Mostly Sunny 75 23.9 35 1.7 23 23 VRB 6 9 30.40 1029 10 16 N/A
4:52 pm 16:52 Sunny 73 22.8 41 5 32 32 S 12 19 30.39 1029 10 16 N/A
5:52 pm 17:52 Mostly Sunny 73 22.8 41 5 32 32 SSE 8 13 30.37 1029 10 16 N/A
6:52 pm 18:52 Sunny 72 22.2 40 4.4 31 31 S 8 13 30.37 1028 10 16 N/A
7:52 pm 19:52 Sunny 70 21.1 42 5.6 37 37 S 8 13 30.37 1028 10 16 N/A
8:15 pm 20:15 Partly Cloudy 68 20 43 6 40 40 S 7 11 30.36 1028 10 16 N/A
8:52 pm 20:52 Mostly Clear 68 20 41 5 38 38 SSW 7 11 30.37 1028 10 16 N/A
9:52 pm 21:52 Clear 66 18.9 45 7.2 47 47 SSE 7 11 30.38 1029 10 16 N/A
10:52 pm 22:52 Clear 64 17.8 46 7.8 52 52 S 9 15 30.39 1029 10 16 N/A
11:52 pm 23:52 Clear 63 17.2 47 8.3 56 56 S 9 15 30.39 1029 10 16 N/A

Powered by AerisWeather